NOAA 16 DEB

Satellite information

Favourite Embed

Satellite Type and Status

DEBRISIN ORBIT

Key statistics

Satellite NOAA 16 DEB at a glance.

Uptime

8993

Days in orbit

Revolutions

≈ 14.4

Per day

Orbit

SSO

Sun Synchronous Orbit

Inclination

98.8

Latest

Satellite identification and parameters

Extended collection of information and parameters for NOAA 16 DEB.

Object identification

Identified? True

Debris? True

Object name: NOAA 16 DEB

International designator: 2000-055DU

Object number (NORAD): 41215

Object ID (CCSDS): 41215

Country: UNITED STATES OF AMERICA (US)

Current information (Y/N): Y

RCS size: SMALL

Orbital parameters

Period: 99.782 minutes

Inclination: 98.796 deg

SMA: 7126.274 km

Apoapsis: 765.938 km

Periapsis: 730.34 km

RAAN: 246.7314 deg

Eccentricy: 0.0024976

Argument of periapsis: 213.5134 deg

Mean anomaly: 146.4475 deg

Mean motion: 14.43141754 rev/day

Mean motion (dot): 0.00011488 rev/day2

B* drag term: 0.0034165 1/REarth

Two-line elements (TLE)

Creation date: May 6, 2025, 3:54 a.m.

Reference frame: TEME

Reference center: EARTH

Epoch: May 5, 2025, 8:23 p.m. UTC

TLE line 0: 0 NOAA 16 DEB

TLE line 1: 1 41215U 00055DU 25125.84968006 .00011488 00000-0 34165-2 0 9992

TLE line 2: 2 41215 98.7960 246.7314 0024976 213.5134 146.4475 14.43141754488597

Live tracking on map

Real-time ground track for satellite NOAA 16 DEB.

In-orbit conjunctions

A list of the most updated potential collisions computed for object NOAA 16 DEB.

Target Orbit TCA Probability of collision Miss distance Type
CZ-6A DEB LEO 2025-02-02 09:36:55 0.0001593359 911.0 (m) DEBRIS
CZ-6A DEB LEO 2024-12-17 16:38:48 0.0001523449 296.0 (m) DEBRIS

Associated space launch

The NOAA K, L and M POES satellites begin the fifth generation of improved environmental monitoring in support of NOAA missions. The instrument payload has significant improvements and additions/deletions. The instrument changes have effected the spacecraft subsystems and data formats.

NOAA 16 DEB was lifted into orbit during the mission ‘Titan II SLV | NOAA 16’, on board a Titan II SLV space rocket.

The launch took place on Sept. 21, 2000, 10:22 a.m. from Space Launch Complex 4W.

For more information about the launch, click the button.

Launch to space Titan II SLV | NOAA 16
Titan II SLV | NOAA 16

Agency: N/A

Status: Launch Successful

Launch date: Sept. 21, 2000, 10:22 a.m. UTC

Rocket: Titan II SLV

Launch pad: Space Launch Complex 4W

Location: Vandenberg SFB, CA, USA

...

Latest news about this satellite

There are no fresh news available about this satellite. Check back as we update our databases every day.


Newsletter sign-up

Weekly statistics, charts and insights to help you stay on top of the space industry.